EHI
84 80 76 74 71 63 56 53 53 56 58 57 55 51 44 40 39 36 30 25 24 24 24 23 20 18 15 13 12 11 11 11 9 7 8 10 10 9 6 3 2 2 1
86 84 82 81 77 70 62 57 55 55 56 56 55 51 45 40 39 37 30 21 20 22 23 22 19 16 15 14 13 11 11 11 10 8 9 11 11 9 7 5 4 3 2
84 85 86 86 83 77 69 64 59 57 56 55 53 50 46 41 40 38 30 22 21 23 23 22 18 15 15 15 14 12 11 12 12 11 11 12 11 8 7 6 5 4 3
80 82 84 85 83 78 71 67 64 61 59 56 53 50 45 40 37 35 30 26 26 27 25 22 17 14 14 14 13 11 11 13 14 13 12 11 9 7 5 5 4 3 3
78 80 82 82 80 74 68 65 64 62 58 57 55 50 43 35 29 29 28 27 30 30 26 21 16 12 10 10 10 10 12 13 14 13 12 10 8 5 3 2 2 2 1
78 78 79 77 74 69 65 63 62 60 57 55 53 50 42 30 21 20 23 28 31 30 27 22 15 9 8 7 6 6 9 11 12 12 12 11 9 5 2 1 0 0 0
76 75 74 71 67 66 65 63 61 58 55 53 52 50 42 28 17 14 17 25 30 29 27 24 18 11 8 7 6 5 6 7 8 10 11 12 11 8 5 1 0 0 0
72 70 67 64 62 63 63 61 58 55 53 52 51 51 43 28 15 8 10 19 26 26 25 24 21 15 9 8 9 8 7 6 6 6 8 10 10 10 7 3 0 0 0
67 66 62 59 58 59 58 57 55 53 52 51 50 51 45 30 14 5 7 15 22 23 23 22 20 14 7 6 9 11 10 8 7 5 4 5 6 7 6 3 1 1 0
63 61 57 54 54 53 53 54 53 51 49 48 48 49 45 33 16 5 6 13 19 21 21 20 17 11 4 2 6 9 9 9 7 4 2 3 4 5 5 4 3 2 1
53 50 48 47 46 47 50 52 51 48 45 45 45 45 43 34 18 6 4 9 16 20 23 22 16 8 2 1 2 5 6 7 6 5 5 6 6 6 6 6 5 3 1
41 39 40 41 41 42 46 47 46 43 41 40 40 40 39 33 21 8 3 4 10 16 20 18 12 4 0 0 1 2 4 5 6 7 8 9 8 7 6 6 5 4 2
34 34 34 37 39 40 40 40 39 37 35 34 35 34 33 31 24 13 3 1 4 8 10 7 4 1 0 0 0 1 3 4 6 7 8 8 7 7 6 4 3 2 2
36 36 33 33 35 35 33 31 30 29 29 29 31 30 30 31 27 18 8 3 2 3 2 2 1 1 0 0 0 1 3 4 5 6 6 5 5 6 6 3 1 0 1
39 37 32 29 29 28 25 21 18 17 19 22 25 27 27 27 24 17 11 6 3 2 2 3 3 3 1 1 2 3 4 5 5 4 3 3 4 5 5 3 1 0 0
34 32 28 24 24 23 20 15 10 7 8 10 14 18 18 16 13 10 7 5 2 2 3 5 6 6 4 2 3 3 4 5 4 3 2 2 3 4 4 3 1 0 0
25 24 22 21 20 18 17 13 9 5 4 4 5 6 6 5 4 2 1 1 1 1 4 7 8 8 5 3 1 1 2 4 4 3 2 3 3 4 4 3 2 1 0
17 16 16 18 18 16 15 13 11 8 7 5 3 0 0 0 0 0 0 0 0 1 4 7 7 7 5 3 1 1 2 3 4 3 3 3 3 3 3 3 2 1 1
12 12 14 16 17 16 14 12 12 11 10 8 5 2 0 0 0 0 0 1 1 2 2 4 4 4 3 3 3 2 3 3 3 3 3 3 3 2 2 1 1 1 0
9 9 11 14 15 15 14 11 10 10 9 8 7 3 1 0 0 0 0 1 2 2 1 1 1 1 1 3 3 3 3 3 3 3 3 3 2 1 1 0 0 0 0
7 7 8 10 12 12 11 10 9 8 8 8 7 4 1 0 0 0 0 1 2 1 1 0 0 0 1 2 3 3 3 3 3 3 3 3 3 2 1 0 0 0 0
6 5 5 6 7 8 8 8 7 7 7 7 6 3 1 0 1 1 1 1 1 0 0 1 1 1 0 1 2 2 3 3 3 3 3 3 3 2 1 0 0 0 0
5 4 3 4 5 6 7 7 7 6 6 6 5 3 1 0 1 1 1 0 0 0 2 3 2 1 0 0 1 1 1 2 3 3 3 2 2 1 1 0 0 0 0
5 4 3 3 4 5 6 6 6 5 4 4 5 4 1 0 1 1 0 0 1 2 3 4 3 1 0 0 0 0 0 1 1 2 1 1 1 0 0 0 0 0 0
3 3 2 2 3 4 4 4 4 4 3 3 4 3 2 1 1 1 1 2 2 3 4 3 2 1 0 0 0 0 0 0 0 0 0 0 0 0 0 0 0 0 0
1 1 1 1 1 2 3 3 3 3 3 3 3 3 2 2 2 2 3 4 3 3 3 3 2 1 1 1 0 0 0 0 0 0 0 0 0 0 0 0 0 0 0
Wind_Speed
8 7 6 7 6 6 5 5 4 3 3 4 4 4 4 3 4 3 3 3 3 3 2 2 2 2 2 2 1 1 1 1 1 1 1 2 3 3 3 3 4 4 4
8 7 6 6 6 6 6 5 4 4 4 4 4 4 4 4 3 3 3 3 3 2 2 2 2 2 2 1 2 2 1 1 2 2 1 2 2 3 3 3 2 3 4
8 7 7 7 6 6 5 5 4 4 4 4 4 4 3 3 3 3 3 3 2 2 2 2 2 1 2 1 2 2 1 1 1 2 2 2 2 3 3 2 3 2 3
7 7 7 7 6 6 5 5 5 5 4 4 4 3 3 3 3 3 3 3 2 2 2 2 2 2 2 2 2 1 1 1 1 1 2 2 2 3 3 2 2 2 2
5 6 6 5 5 5 5 4 4 4 5 4 3 3 3 3 3 3 3 3 3 3 2 3 3 2 1 1 1 1 1 1 1 1 1 2 2 3 3 2 2 2 2
3 4 4 4 5 5 5 5 4 4 4 4 4 3 3 3 1 1 1 1 2 3 3 3 3 3 3 3 2 1 0 1 1 1 1 2 2 2 2 2 2 2 2
2 2 3 3 4 4 5 5 5 5 4 4 4 4 3 3 3 2 1 2 2 2 3 3 4 2 4 3 3 4 3 2 2 1 1 1 1 2 3 3 2 2 1
2 2 2 3 3 4 4 4 4 4 4 4 4 3 3 3 4 3 2 3 3 3 3 3 3 1 2 2 3 3 3 3 3 3 1 1 0 2 3 3 3 2 1
2 2 2 2 2 3 4 4 3 3 3 4 3 3 3 3 5 4 3 2 2 3 3 3 3 2 3 3 2 2 2 2 2 3 2 2 2 2 3 1 2 2 2
1 0 1 2 2 3 3 3 3 3 3 3 3 3 3 3 5 5 4 3 3 3 2 2 2 2 4 4 3 3 3 2 2 2 2 2 2 3 4 3 2 2 2
1 1 2 2 3 3 3 2 2 3 3 3 3 3 3 3 6 6 6 3 3 2 2 1 1 3 4 4 3 2 3 2 2 2 2 2 2 2 3 2 2 2 1
1 2 2 2 2 2 2 2 3 3 3 4 3 3 2 3 4 6 7 6 3 2 1 0 2 3 4 4 3 2 2 2 2 2 2 2 2 2 2 2 2 2 2
2 2 2 2 2 1 2 2 2 2 3 3 2 2 2 2 3 5 6 5 3 2 1 2 2 3 3 3 4 3 2 2 2 2 2 2 2 2 2 2 2 1 2
2 2 2 2 2 1 1 1 1 1 2 1 1 1 2 2 2 2 2 2 2 2 1 1 2 3 2 2 3 3 3 2 2 2 1 1 1 2 2 2 2 2 2
3 3 3 3 2 1 1 1 0 1 0 1 0 0 0 1 1 1 2 1 1 2 2 2 1 1 2 2 3 3 3 3 3 2 1 1 1 1 2 2 2 2 2
3 3 3 2 1 1 2 2 5 3 2 2 1 2 2 3 3 3 2 1 1 2 2 2 2 2 2 1 1 1 1 1 2 2 2 1 1 1 1 1 1 2 2
3 3 3 3 2 2 2 2 2 2 3 3 3 4 4 4 4 3 3 3 1 2 1 1 1 1 1 1 0 0 0 1 0 0 0 1 1 1 1 1 1 1 2
4 3 3 2 2 2 1 2 2 2 2 2 2 3 3 4 4 3 3 3 2 1 1 1 1 1 1 2 2 2 2 2 1 1 1 1 1 1 1 1 1 1 1
4 2 2 2 2 1 1 1 1 1 2 3 3 2 2 3 3 2 2 1 1 2 1 1 1 1 1 2 2 1 1 1 2 1 1 2 1 1 1 1 1 1 1
2 2 2 2 1 1 1 1 1 1 2 2 2 2 2 2 2 2 2 1 1 1 1 1 1 1 2 2 1 1 1 1 1 1 1 1 1 2 2 2 1 2 2
2 2 3 2 1 1 0 0 0 0 1 2 2 2 1 2 2 2 2 1 1 1 2 2 2 2 2 1 1 1 1 2 2 2 1 2 1 1 2 2 2 2 2
2 2 2 1 0 0 1 1 1 1 2 2 2 2 2 1 2 2 2 3 2 2 2 2 2 2 1 2 1 1 2 2 2 2 2 2 2 2 2 3 2 2 2
2 1 1 0 1 1 1 1 1 2 2 2 2 2 2 1 2 2 2 2 2 2 2 2 2 2 2 2 3 3 3 2 2 3 3 3 2 2 2 3 3 3 2
2 1 0 0 0 1 1 1 1 2 2 2 2 2 2 2 2 2 2 2 2 2 2 2 2 4 5 4 4 4 4 4 4 2 3 3 3 2 2 3 3 3 2
1 1 1 1 0 1 1 1 1 2 2 2 2 2 2 2 2 2 2 2 3 3 3 3 3 5 7 7 6 5 5 5 5 5 3 3 3 3 3 3 3 3 3
3 2 2 1 1 1 1 1 2 1 1 2 2 2 1 2 2 2 2 2 2 3 3 4 6 7 7 6 7 6 5 5 5 5 4 3 3 3 3 3 4 4 3
Wind_Direction
180 183 185 180 191 201 210 209 208 202 193 189 192 198 204 205 205 211 229 224 224 232 245 230 232 245 279 289 286 268 251 209 221 183 113 113 108 111 126 130 138 141 141
178 177 183 179 186 196 201 202 195 200 200 193 196 200 209 210 206 213 237 237 228 225 231 255 261 248 238 269 292 282 268 208 189 191 158 134 134 145 145 155 157 150 144
172 175 180 185 188 194 199 193 191 195 203 202 198 202 215 214 205 214 224 236 238 231 225 236 250 256 267 263 266 284 292 271 187 186 180 152 149 159 154 170 173 158 164
171 176 180 189 189 189 195 193 191 194 202 204 205 208 210 217 223 222 217 224 233 229 223 228 235 227 237 250 252 252 272 287 241 199 185 161 151 159 168 185 186 175 181
167 178 181 182 185 185 191 194 191 195 201 195 203 204 207 213 227 224 223 221 220 229 226 226 221 196 177 205 267 288 272 253 242 210 191 158 159 165 189 189 184 174 186
165 179 174 181 188 191 195 193 188 194 198 191 197 198 209 219 181 182 221 256 242 241 240 245 225 190 179 181 180 176 241 245 241 231 211 190 179 173 167 181 177 183 195
160 178 179 183 184 188 198 188 190 193 194 195 200 198 195 168 144 151 187 240 242 248 248 247 258 223 171 184 187 204 213 205 197 215 240 237 193 171 174 193 200 203 206
158 178 188 200 199 195 196 194 190 189 193 196 202 195 187 178 168 166 183 225 237 238 238 235 240 218 204 192 195 203 207 197 203 205 196 232 183 161 184 198 198 195 220
162 186 212 209 203 202 202 199 195 193 197 199 193 187 188 172 166 169 168 224 231 243 247 239 228 206 192 184 205 218 213 188 171 144 139 135 117 139 156 174 197 197 218
39 263 231 217 202 206 214 209 198 193 201 200 194 187 189 179 173 179 184 217 225 226 228 226 215 200 173 177 203 219 225 222 185 158 153 175 184 180 183 199 210 213 231
336 290 279 249 222 209 200 201 206 212 205 205 202 195 192 183 169 183 188 221 244 232 229 221 171 160 164 178 204 221 225 226 208 195 189 180 177 174 188 199 208 200 221
312 275 267 262 252 224 206 210 208 215 218 212 210 199 182 170 174 185 191 209 251 274 265 252 109 134 166 194 206 227 240 246 220 207 201 188 185 183 183 189 199 214 224
302 289 268 260 260 241 223 223 215 213 225 222 207 199 180 167 164 171 188 211 246 263 324 67 112 160 176 196 209 210 215 226 217 215 212 201 197 183 170 176 189 217 247
281 277 262 238 237 236 258 244 206 237 232 219 213 211 173 142 123 128 156 172 190 210 227 150 155 192 224 224 203 204 212 228 218 211 207 198 178 169 175 178 191 200 216
280 274 271 260 235 192 131 31 80 47 353 279 289 178 156 154 141 166 172 182 195 188 181 179 171 170 207 214 208 206 203 208 214 210 199 203 201 188 185 183 194 213 222
285 280 273 261 231 196 154 105 64 84 77 80 117 135 101 104 126 123 129 154 187 166 167 186 184 188 201 207 203 194 199 208 210 189 190 194 197 203 211 202 193 214 230
294 294 292 282 260 238 205 183 155 98 73 75 89 109 125 131 122 121 124 119 126 150 170 199 187 179 168 152 123 93 68 44 30 138 213 226 203 225 237 238 230 233 239
299 294 290 286 278 263 243 235 205 175 154 120 99 118 141 153 150 146 131 123 109 136 148 124 94 64 71 74 65 45 38 39 29 17 33 20 3 316 301 283 261 263 278
304 308 309 298 286 276 272 265 227 175 152 144 133 124 160 167 154 139 140 148 143 139 135 110 87 61 58 64 60 56 51 48 41 25 22 5 355 340 321 311 302 301 272
295 292 274 269 261 244 240 242 219 157 147 142 130 122 137 142 131 128 147 153 111 92 76 81 74 62 65 66 55 43 41 49 41 33 10 349 355 346 327 321 307 285 271
282 270 264 253 250 261 247 252 270 118 124 123 118 107 133 159 142 128 118 105 87 86 83 80 80 72 68 65 56 43 52 45 35 15 354 336 338 327 309 292 280 280 277
293 283 276 269 230 142 124 115 132 129 116 113 122 118 118 102 90 97 99 94 82 67 71 77 79 75 71 72 65 41 42 45 26 2 348 341 338 325 314 306 304 300 295
288 282 278 313 79 109 133 114 124 121 125 127 122 111 108 88 88 97 98 97 94 89 89 91 87 73 65 70 67 56 43 24 359 357 345 329 319 313 310 307 307 310 311
310 318 299 109 98 111 107 97 97 102 100 104 109 113 125 135 127 117 115 109 101 94 91 88 83 71 63 63 61 56 43 22 1 356 340 317 314 321 321 318 320 322 321
346 26 24 29 58 102 109 107 102 101 103 104 103 109 124 120 111 111 117 112 107 101 93 93 87 78 73 68 62 58 47 34 24 0 336 322 316 320 326 327 328 322 328
29 44 45 38 46 79 102 97 93 106 119 125 120 115 117 112 112 108 110 107 106 106 101 91 86 83 82 75 71 70 53 34 19 358 331 319 323 341 347 340 337 335 335